Regional Weather Roundup
Issued by NWS State College, PA

Home | Current Version | Previous Version | Text Only | Print | Product List | Glossary On
Versions: 1 2 3 4 5 6 7 8 9 10 11 12 13 14 15 16 17 18 19 20 21 22 23 24 25 26 27 28 29 30 31 32 33 34 35 36 37 38 39 40 41 42 43 44 45 46 47 48 49 50
000
ASUS41 KCTP 110910
RWRCTP

REGIONAL WEATHER ROUNDUP
NATIONAL WEATHER SERVICE STATE COLLEGE PA
400 AM EST THU FEB 11 2016

Note: "fair" indicates few or no clouds below 12,000 feet with no
significant weather and/or obstructions to visibility.

* = STATION THAT DOES NOT REPORT PRECIPITATION /E.G. RAIN...SNOW...ETC/
    THUNDER OR FOG.

PAZ002>004-007>009-013>016-020>023-029>032-111000-
WESTERN PENNSYLVANIA

CITY           SKY/WX    TMP DP  RH WIND       PRES   REMARKS
ERIE           CLOUDY    15   4  61 W18G26    29.94R WCI  -2
MEADVILLE      MOCLDY    11  -1  58 W16G23    29.89R WCI  -6
FRANKLIN*      CLOUDY     9   1  72 W13       29.89S WCI  -7
NEW CASTLE     FLURRIES  12   7  80 W7        29.96S WCI   1
BEAVER COUNTY  NOT AVBL
BUTLER*        PTCLDY    12   7  79 W10G17    29.96R WCI  -1
PITTSBURGH INT FLURRIES  11   6  81 W8        29.95R WCI  -1
PITTSBURGH     MOCLDY    13   5  70 W14       29.95R WCI  -2
INDIANA*       CLOUDY    14  10  85 W16       29.91S FOG     WCI  -2
LATROBE        FLURRIES  14   7  73 W15       29.96S WCI  -1
WASHINGTON CO* CLOUDY    12   5  73 W9G18     29.98R WCI   0
$$

PAZ004>006-010>012-017>019-024>028-033>037-041-042-045-046-049>053-111000-
CENTRAL PENNSYLVANIA

CITY           SKY/WX    TMP DP  RH WIND       PRES   REMARKS
BRADFORD       PTCLDY     8   0  69 W14G21    29.74S WCI  -8
DUBOIS         MOCLDY    10   1  67 W16G24    29.81R WCI  -7
CLEARFIELD     LGT SNOW  13   6  74 W10G21    29.82R WCI   0
JOHNSTOWN      LGT SNOW   9   2  73 W23G35    29.79R WCI -11
ALTOONA        FLURRIES  14   6  70 W18G30    29.85F WCI  -3
STATE COLLEGE  CLOUDY    16   7  69 W20       29.84R HAZE    WCI  -1
WILLIAMSPORT   PTCLDY    17   6  62 W9        29.86S WCI   6
SELINSGROVE    CLOUDY    15   7  70 NW5       29.89S WCI   8
FT INDIANTOWN  LGT SNOW  19  14  82 W8        29.88S WCI   9
CAPITAL CITY   MOCLDY    19   5  54 W8        29.90S WCI   9
HARRISBURG     MOCLDY    21   8  57 W14       29.90R WCI   8
YORK           CLEAR     18   5  57 W13       29.91R WCI   5
$$

PAZ038>040-043-044-047-048-054-055-060>062-067>071-111000-
EASTERN PENNSYLVANIA

CITY           SKY/WX    TMP DP  RH WIND       PRES   REMARKS
SCRANTON       CLEAR     15   0  51 W8        29.79S WCI   4
MOUNT POCONO   CLEAR     12  -3  51 W14G21    29.68S WCI  -3
ALLENTOWN      CLEAR     21   4  47 W8        29.84S WCI  11
QUAKERTOWN*    NOT AVBL
READING        CLEAR     19  13  77 W9        29.87S WCI   8
LANCASTER      MOCLDY    17   7  64 W8        29.89R WCI   7
COATESVILLE    SUNNY     16   9  73 W9        29.87S WCI   4
POTTSTOWN      CLEAR     19  12  74 W7        29.87S WCI  10
BLUE BELL        N/A     21  14  73 W5        29.85S WCI  15
DOYLESTOWN     CLEAR     20   8  60 W12       29.83R WCI   8
WILLOW GROVE   NOT AVBL
NORTH PHILA    MOCLDY    24  11  57 W17       29.88R WCI  11
PHILADELPHIA   MOCLDY    24  10  55 W16G25    29.89S WCI  11
$$



USA.gov is the U.S. government's official web portal to all federal, state and local government web resources and services.